Location: Zagreb
(45.8000°N, 16.0000°E)
Time: 15:53:25
(UTC+01:00)

Tiros 1 despin weight - Pass Details

Date: 27 January 2020
Orbit: 594 x 642 km, 48.2° (Epoch: 25 February)

Event Time Altitude Azimuth Distance (km) Brightness Sun altitude
Rises 09:31:36 0° 203° (SSW) 2,834 ? 16.5°
Reaches altitude 10° 09:34:19 10° 187° (S) 1,943 ? 16.8°
Maximum altitude 09:37:38 21° 139° (SE) 1,388 ? 17.1°
Drops below altitude 10° 09:41:00 10° 91° (E) 1,973 ? 17.5°
Sets 09:43:47 0° 75° (ENE) 2,892 ? 17.8°
